Details From KPIT - Pittsburgh Intl
To KGKJ - PORT MEADVILLE
Flight Number -
Tags decoded
Created
Modified
Stats Distance 83 nm / 153 km
Max Altitude 0 ft / 0 m
Waypoints 6
Social Downloads 1
Likes 0
Share VATSIM

Download

Looking for another format? Having issues loading an existing format? Contact us
Advertisement - Login to hide

Notes

Requested: KPIT EWC KUCP 29D 4G1 KGKJ

Route

KPIT EWC KUCP 29D 4G1 KGKJ

ID Type Via Altitude Latitude Longitude Leg Dist Tot Dist Heading (true) Name
O KPIT APT - 0 ft / 0 m 40.49135˚ -80.23180˚ - 0 nm - Pittsburgh Intl
EWC VOR - 0 ft / 0 m 40.82494˚ -80.21156˚ 20 nm 20 nm 3° / 3° ELLWOOD CITY VORTAC
KUCP APT - 0 ft / 0 m 41.02504˚ -80.41344˚ 15 nm 35 nm 323° / 323° NEW CASTLE MUNI
29D APT - 0 ft / 0 m 41.14604˚ -80.16776˚ 13 nm 48 nm 57° / 57° GROVE CITY
4G1 APT - 0 ft / 0 m 41.44683˚ -80.39125˚ 20 nm 69 nm 331° / 331° Greenville Municipal
O KGKJ APT - 0 ft / 0 m 41.62652˚ -80.21473˚ 13 nm 82 nm 36° / 36° PORT MEADVILLE

Altitude Profile

Advertisement - Login to hide

KPIT

Details ICAO KPIT (PIT)
Name Pittsburgh Intl
Region United States
Timezone America/New_York (UTC-4.0)
Stats Elevation 1,204 ft / 367 m (AMSL)
Location 40.491353° -80.231803°
Runways 4
Magnetic Variation 9.161° W

METAR

KPIT 240051Z 34005KT 10SM FEW250 21/10 A3015 RMK AO2 SLP211 T02110100

Decode

TAF

TAF KPIT 232320Z 2400/2506 VRB03KT P6SM SKC

Decode

Departure Runways

ID Width Length Bearing (true) Bearing (mag) Surface Threshold Offset Overrun Length
10C 151 ft / 46 m 9,686 ft / 2,952 m 91.97° 101.13° Asphalt 0 ft / 0 m 0 ft / 0 m
10L 151 ft / 46 m 10,479 ft / 3,194 m 91.95° 101.11° Asphalt 0 ft / 0 m 59 ft / 18 m
10R 200 ft / 61 m 11,473 ft / 3,497 m 91.97° 101.13° Concrete 0 ft / 0 m 210 ft / 64 m
14 151 ft / 46 m 8,099 ft / 2,469 m 136.49° 145.65° Concrete 0 ft / 0 m 194 ft / 59 m
28C 151 ft / 46 m 9,686 ft / 2,952 m 271.99° 281.15° Asphalt 0 ft / 0 m 906 ft / 276 m
28L 200 ft / 61 m 11,473 ft / 3,497 m 271.99° 281.15° Concrete 0 ft / 0 m 249 ft / 76 m
28R 151 ft / 46 m 10,479 ft / 3,194 m 271.97° 281.13° Asphalt 0 ft / 0 m 390 ft / 119 m
32 151 ft / 46 m 8,099 ft / 2,469 m 316.51° 325.67° Concrete 0 ft / 0 m 184 ft / 56 m

KGKJ

Details ICAO KGKJ
Name PORT MEADVILLE
Region United States
Timezone America/New_York (UTC-4.0)
Stats Elevation 1,400 ft / 427 m (AMSL)
Location 41.626515° -80.214729°
Runways 1
Magnetic Variation 9.418° W

METAR

KGKJ 240053Z AUTO 00000KT 10SM CLR 17/11 A3017 RMK AO2 SLP217 T01720106

Decode

TAF

Not found

Destination Runways

ID Width Length Bearing (true) Bearing (mag) Surface Threshold Offset Overrun Length
07 75 ft / 23 m 4,994 ft / 1,522 m 61.15° 70.57° Asphalt 0 ft / 0 m 0 ft / 0 m
25 75 ft / 23 m 4,994 ft / 1,522 m 241.16° 250.58° Asphalt 0 ft / 0 m 0 ft / 0 m